Home   Weather   Sydney   Past weeks
Flag for Australia

Past Weather in Sydney, New South Wales, Australia — Yesterday and Last 2 Weeks

Now
68 °F

Scattered showers. Partly cloudy.


Feels Like: 68 °F
Forecast: 73 / 67 °F
Wind: 17 mph from South

Location: Sydney Airport

Current Time: Feb 22, 2019 at 5:12:56 am

Latest Report: Feb 22, 2019 at 4:30 am


Visibility: N/A

Pressure: 30.07 "Hg

Humidity: 88%

Dew Point: 64 °F

Location of SydneyLocation

Past Weather in Sydney — Graph

°F

Sydney Temperature Yesterday

Maximum temperature yesterday: 73 °F (at 12:30 am)
Minimum temperature yesterday: 66 °F (at 9:20 pm)
Average temperature yesterday: 70 °F

High & Low Weather Summary for the Past Weeks

 TemperatureHumidityPressure
High99 °F (Feb 12, 3:00 pm)100% (Feb 19, 11:30 pm)30.24 "Hg (Feb 19, 11:30 pm)
Low63 °F (Feb 10, 6:30 am)10% (Feb 12, 3:30 pm)29.39 "Hg (Feb 9, 4:30 pm)
Average75 °F65%29.83 "Hg
* Reported Feb 7 4:00 am — Feb 22 4:00 am, Sydney. Weather by CustomWeather, © 2019

Note: Actual official high and low records may vary slightly from our data, if they occured in-between our weather recording intervals... More about our weather records

Advertising

Sydney Weather History for the Previous 24 Hours

Scroll right to see more
 ConditionsComfort  
Time TempWeatherWind HumidityBarometerVisibility
4:00 am
Fri, Feb 22
68 °FScattered showers. Partly cloudy.15 mph88%30.07 "HgN/A
3:30 am70 °FSprinkles. Passing clouds.16 mph83%30.07 "HgN/A
3:00 am68 °FRain showers. Partly cloudy.13 mph88%30.07 "Hg5 mi
2:30 am66 °FSprinkles. Partly cloudy.13 mph94%30.07 "HgN/A
2:00 am68 °FPartly cloudy.15 mph88%30.07 "HgN/A
1:30 am72 °FScattered showers. Partly cloudy.15 mph83%30.07 "HgN/A
1:00 am72 °FScattered showers. Partly cloudy.10 mph83%30.09 "HgN/A
12:30 am72 °FScattered showers. Partly cloudy.14 mph83%30.09 "HgN/A
12:00 am72 °FScattered showers. Partly cloudy.14 mph83%30.09 "HgN/A
11:30 pm
Thu, Feb 21
72 °FScattered showers. Partly cloudy.15 mph83%30.09 "HgN/A
11:00 pm70 °FScattered showers. Partly cloudy.13 mph94%30.09 "HgN/A
10:30 pm68 °FSprinkles. Partly cloudy.13 mph94%30.09 "HgN/A
10:20 pm68 °FSprinkles. Partly cloudy.13 mph94%30.09 "Hg5 mi
10:10 pm70 °FRain showers. Passing clouds.21 mph94%30.09 "Hg2 mi
9:30 pm66 °FSprinkles. Partly cloudy.16 mph94%30.09 "Hg5 mi
9:20 pm66 °FSprinkles. Partly cloudy.17 mph94%30.09 "Hg5 mi
9:10 pm68 °FRain showers. Partly cloudy.17 mph94%30.07 "Hg3 mi
8:51 pm68 °FRain showers. Passing clouds.17 mph94%30.07 "Hg4 mi
8:30 pm70 °FSprinkles. Partly cloudy.16 mph88%30.07 "HgN/A
8:00 pm70 °FSprinkles. Partly cloudy.18 mph88%30.07 "Hg5 mi
7:30 pm70 °FScattered showers. Broken clouds.18 mph88%30.04 "HgN/A
7:00 pm70 °FBroken clouds.17 mph88%30.04 "HgN/A
6:30 pm70 °FSprinkles. Broken clouds.16 mph88%30.04 "HgN/A
6:00 pm68 °FSprinkles. Broken clouds.17 mph94%30.01 "HgN/A
5:30 pm70 °FSprinkles. Partly sunny.17 mph88%30.01 "HgN/A
5:00 pm70 °FSprinkles. Partly sunny.16 mph88%30.01 "HgN/A
4:30 pm70 °FScattered showers. Broken clouds.20 mph88%30.01 "HgN/A
4:00 pm72 °FScattered showers. Partly sunny.18 mph83%30.01 "HgN/A
3:30 pm72 °FScattered showers. Broken clouds.20 mph83%30.01 "HgN/A
3:00 pm72 °FScattered showers. Partly sunny.20 mph83%30.01 "HgN/A
2:30 pm72 °FSprinkles. Broken clouds.21 mph83%30.01 "HgN/A
2:00 pm72 °FScattered showers. Broken clouds.18 mph83%30.01 "HgN/A
1:30 pm72 °FScattered showers. Partly sunny.18 mph83%30.01 "HgN/A
1:00 pm72 °FScattered showers. Partly sunny.20 mph83%30.01 "HgN/A
12:46 pm72 °FScattered showers. Partly sunny.20 mph83%30.01 "HgN/A
12:30 pm70 °FScattered showers. Partly sunny.20 mph88%30.01 "HgN/A
12:00 pm72 °FSprinkles. Broken clouds.18 mph83%30.01 "HgN/A
11:30 am70 °FSprinkles. Partly sunny.21 mph88%30.01 "HgN/A
11:00 am70 °FSprinkles. Broken clouds.20 mph88%30.01 "HgN/A
10:30 am70 °FSprinkles. Broken clouds.17 mph88%30.01 "HgN/A
10:00 am70 °FSprinkles. Broken clouds.18 mph88%30.01 "HgN/A
9:30 am68 °FSprinkles. Broken clouds.17 mph94%30.01 "HgN/A
9:00 am68 °FSprinkles. Partly sunny.17 mph94%29.98 "HgN/A
8:30 am68 °FSprinkles. Broken clouds.17 mph94%29.98 "HgN/A
8:00 am68 °FSprinkles. Broken clouds.16 mph94%29.95 "HgN/A
7:30 am70 °FSprinkles. Broken clouds.15 mph88%29.95 "HgN/A
7:00 am70 °FSprinkles. Partly sunny.15 mph88%29.95 "HgN/A
6:30 am70 °FSprinkles. Partly cloudy.16 mph88%29.92 "HgN/A
6:00 am70 °FSprinkles. Partly cloudy.16 mph88%29.92 "HgN/A
5:30 am70 °FScattered showers. Partly cloudy.17 mph88%29.92 "HgN/A
5:00 am70 °FPassing clouds.14 mph88%29.92 "HgN/A
Weather by CustomWeather, © 2019

See weather overview